Weather History for Mosby, MO

Change the Weather History Date:

Friday, March 29, 2013

  Actual Average (KMKC) Record (KMKC)
Temperature  
Mean Temperature 50 °F -  
Max Temperature 64 °F 59 °F 82 °F (2012)
Min Temperature 35 °F 40 °F 28 °F (2009)
Degree Days  
Heating Degree Days 16    
Moisture  
Dew Point 35 °F    
Average Humidity 56    
Maximum Humidity 93    
Minimum Humidity 30    
Precipitation  
Precipitation 0.00 in - - ()
Sea Level Pressure  
Sea Level Pressure 30.18 in    
Wind  
Wind Speed 4 mph (East)    
Max Wind Speed 12 mph    
Max Gust Speed 18 mph    
Visibility 10 miles    
Events Thunderstorm    
Averages and records for this station are not official NWS values.
T = Trace of Precipitation, MM = Missing Value Source: NWS Daily Summary

Daily Weather History Graph

Daily Weather History Graph

Search for Another Location

Airport:

Trip Planner

Search our weather history database for the weather conditions in past years. The results will help you decide how hot, cold, wet, or windy it might be!

Date:

Astronomy

Mar. 29, 2013 Rise Set
Actual Time 7:05 AM CDT 7:38 PM CDT
Civil Twilight 6:39 AM CDT 8:05 PM CDT
Nautical Twilight 6:07 AM CDT 8:37 PM CDT
Astronomical Twilight 5:34 AM CDT 9:09 PM CDT
Moon 10:38 PM CDT (3/29) 8:16 AM CDT (3/29)
Length of Visible Light 13h 26m
Length of Day
12h 32m
Waning Gibbous, 93% of the Moon is Illuminated
Mar 29
Waning Gibbous
Apr 2
Last Quarter
Apr 10
New
Apr 18
First Quarter
Apr 25
Full

Hourly Weather History & Observations

Time (CDT) Temp. Windchill Dew Point Humidity Pressure Visibility Wind Dir Wind Speed Gust Speed Precip Events Conditions
12:15 AM 50.0 °F - 41.0 °F 71% 30.19 in 10.0 mi NE 5.8 mph - N/A   Scattered Clouds
12:35 AM 50.0 °F - 41.0 °F 71% 30.19 in 10.0 mi Calm Calm - N/A   Mostly Cloudy
12:55 AM 50.0 °F - 39.2 °F 66% 30.19 in 10.0 mi East 4.6 mph - N/A Thunderstorm Mostly Cloudy
1:15 AM 50.0 °F - 39.2 °F 66% 30.19 in 10.0 mi NE 3.5 mph - N/A   Scattered Clouds
1:35 AM 50.0 °F - 39.2 °F 66% 30.19 in 10.0 mi North 3.5 mph - N/A Thunderstorm Mostly Cloudy
1:55 AM 48.2 °F - 39.2 °F 71% 30.19 in 10.0 mi ENE 4.6 mph - N/A   Overcast
2:15 AM 46.4 °F 44.3 °F 39.2 °F 76% 30.19 in 10.0 mi East 4.6 mph - N/A Thunderstorm Scattered Clouds
2:35 AM 46.4 °F 44.3 °F 39.2 °F 76% 30.18 in 10.0 mi East 4.6 mph - N/A   Scattered Clouds
2:55 AM 46.4 °F - 37.4 °F 71% 30.18 in 10.0 mi Calm Calm - N/A   Clear
3:15 AM 42.8 °F 41.1 °F 37.4 °F 81% 30.19 in 10.0 mi NE 3.5 mph - N/A   Clear
3:35 AM 42.8 °F - 37.4 °F 81% 30.19 in 10.0 mi Calm Calm - N/A   Clear
3:55 AM 44.6 °F - 37.4 °F 76% 30.18 in 10.0 mi Calm Calm - N/A   Clear
4:15 AM 44.6 °F - 37.4 °F 76% 30.18 in 10.0 mi Calm Calm - N/A   Clear
4:35 AM 42.8 °F - 35.6 °F 76% 30.18 in 10.0 mi Calm Calm - N/A   Clear
4:55 AM 42.8 °F 41.1 °F 35.6 °F 76% 30.17 in 10.0 mi NE 3.5 mph - N/A   Clear
5:15 AM 42.8 °F - 35.6 °F 76% 30.18 in 10.0 mi Calm Calm - N/A   Clear
5:35 AM 41.0 °F - 35.6 °F 81% 30.19 in 10.0 mi Calm Calm - N/A   Clear
5:55 AM 41.0 °F - 35.6 °F 81% 30.19 in 10.0 mi Calm Calm - N/A   Clear
6:15 AM 37.4 °F - 35.6 °F 93% 30.19 in 10.0 mi Calm Calm - N/A   Clear
6:35 AM 39.2 °F - 35.6 °F 87% 30.20 in 10.0 mi Calm Calm - N/A   Clear
6:55 AM 37.4 °F - 33.8 °F 87% 30.21 in 7.0 mi Calm Calm - N/A   Clear
7:15 AM 35.6 °F - 33.8 °F 93% 30.22 in 7.0 mi Calm Calm - N/A   Clear
7:35 AM 35.6 °F - 33.8 °F 93% 30.22 in 7.0 mi Calm Calm - N/A   Clear
7:55 AM 35.6 °F - 33.8 °F 93% 30.22 in 5.0 mi Calm Calm - N/A   Clear
8:15 AM 37.4 °F - 35.6 °F 93% 30.22 in 7.0 mi Calm Calm - N/A   Clear
8:35 AM 41.0 °F - 35.6 °F 81% 30.22 in 10.0 mi Calm Calm - N/A   Clear
8:55 AM 42.8 °F - 37.4 °F 81% 30.23 in 10.0 mi Calm Calm - N/A   Clear
9:15 AM 44.6 °F - 37.4 °F 76% 30.23 in 10.0 mi Calm Calm - N/A   Clear
9:35 AM 46.4 °F 45.2 °F 37.4 °F 71% 30.23 in 10.0 mi ENE 3.5 mph - N/A   Clear
9:55 AM 46.4 °F 45.2 °F 37.4 °F 71% 30.23 in 10.0 mi NE 3.5 mph - N/A   Clear
10:15 AM 50.0 °F - 39.2 °F 66% 30.23 in 10.0 mi Calm Calm - N/A   Clear
10:35 AM 51.8 °F - 41.0 °F 67% 30.23 in 10.0 mi SE 3.5 mph - N/A   Clear
10:55 AM 53.6 °F - 39.2 °F 58% 30.23 in 10.0 mi East 6.9 mph - N/A   Clear
11:15 AM 55.4 °F - 37.4 °F 51% 30.23 in 10.0 mi East 8.1 mph - N/A   Clear
11:35 AM 55.4 °F - 37.4 °F 51% 30.23 in 10.0 mi ENE 5.8 mph - N/A   Clear
11:55 AM 59.0 °F - 39.2 °F 48% 30.22 in 10.0 mi East 6.9 mph - N/A   Clear
12:15 PM 59.0 °F - 39.2 °F 48% 30.22 in 10.0 mi East 8.1 mph - N/A   Clear
12:35 PM 60.8 °F - 37.4 °F 42% 30.21 in 10.0 mi East 8.1 mph - N/A   Clear
12:55 PM 60.8 °F - 35.6 °F 39% 30.21 in 10.0 mi East 9.2 mph - N/A   Clear
1:15 PM 62.6 °F - 32.0 °F 32% 30.20 in 10.0 mi East 9.2 mph - N/A   Clear
1:35 PM 62.6 °F - 32.0 °F 32% 30.19 in 10.0 mi ESE 10.4 mph 18.4 mph N/A   Clear
1:55 PM 62.6 °F - 32.0 °F 32% 30.19 in 10.0 mi ESE 8.1 mph 11.5 mph N/A   Clear
2:15 PM 62.6 °F - 33.8 °F 34% 30.18 in 10.0 mi East 9.2 mph - N/A   Clear
2:35 PM 64.4 °F - 33.8 °F 32% 30.17 in 10.0 mi East 11.5 mph 18.4 mph N/A   Clear
2:55 PM 64.4 °F - 32.0 °F 30% 30.17 in 10.0 mi ESE 5.8 mph - N/A   Clear
3:15 PM 64.4 °F - 32.0 °F 30% 30.15 in 10.0 mi ESE 11.5 mph - N/A   Clear
3:35 PM 64.4 °F - 32.0 °F 30% 30.15 in 10.0 mi ESE 8.1 mph 16.1 mph N/A   Clear
3:55 PM 64.4 °F - 32.0 °F 30% 30.14 in 10.0 mi East 11.5 mph 17.3 mph N/A   Clear
4:15 PM 64.4 °F - 32.0 °F 30% 30.13 in 10.0 mi East 8.1 mph - N/A   Clear
4:35 PM 64.4 °F - 32.0 °F 30% 30.12 in 10.0 mi ESE 8.1 mph - N/A   Clear
4:55 PM 64.4 °F - 32.0 °F 30% 30.12 in 10.0 mi East 9.2 mph - N/A   Clear
5:15 PM 64.4 °F - 32.0 °F 30% 30.12 in 10.0 mi ESE 10.4 mph - N/A   Clear
5:35 PM 64.4 °F - 32.0 °F 30% 30.12 in 10.0 mi ESE 8.1 mph - N/A   Clear
5:55 PM 64.4 °F - 32.0 °F 30% 30.12 in 10.0 mi SE 9.2 mph - N/A   Clear
6:15 PM 64.4 °F - 32.0 °F 30% 30.13 in 10.0 mi SE 6.9 mph - N/A   Clear
6:35 PM 64.4 °F - 32.0 °F 30% 30.13 in 10.0 mi ESE 8.1 mph - N/A   Clear
6:55 PM 62.6 °F - 33.8 °F 34% 30.13 in 10.0 mi ESE 5.8 mph - N/A   Clear
7:15 PM 62.6 °F - 33.8 °F 34% 30.13 in 10.0 mi ESE 5.8 mph - N/A   Clear
7:35 PM 60.8 °F - 33.8 °F 36% 30.13 in 10.0 mi ESE 4.6 mph - N/A   Clear
7:55 PM 60.8 °F - 33.8 °F 36% 30.13 in 10.0 mi ESE 4.6 mph - N/A   Clear
8:15 PM 59.0 °F - 33.8 °F 39% 30.12 in 10.0 mi East 4.6 mph - N/A   Clear
8:35 PM 59.0 °F - 32.0 °F 36% 30.13 in 10.0 mi ESE 3.5 mph - N/A   Clear
8:55 PM 59.0 °F - 32.0 °F 36% 30.13 in 10.0 mi ESE 3.5 mph - N/A   Clear
9:15 PM 55.4 °F - 33.8 °F 44% 30.14 in 10.0 mi East 3.5 mph - N/A   Clear
9:35 PM 55.4 °F - 33.8 °F 44% 30.14 in 10.0 mi ESE 3.5 mph - N/A   Clear
9:55 PM 51.8 °F - 37.4 °F 58% 30.14 in 10.0 mi Calm Calm - N/A   Clear
10:15 PM 51.8 °F - 35.6 °F 54% 30.14 in 10.0 mi ESE 3.5 mph - N/A   Clear
10:35 PM 53.6 °F - 35.6 °F 51% 30.14 in 10.0 mi ESE 3.5 mph - N/A   Clear
10:55 PM 53.6 °F - 35.6 °F 51% 30.13 in 10.0 mi ESE 4.6 mph - N/A   Clear
11:15 PM 53.6 °F - 35.6 °F 51% 30.14 in 10.0 mi ESE 4.6 mph - N/A   Clear
11:35 PM 51.8 °F - 35.6 °F 54% 30.13 in 10.0 mi SE 6.9 mph - N/A   Clear
11:55 PM 51.8 °F - 35.6 °F 54% 30.11 in 10.0 mi ESE 5.8 mph - N/A   Clear